Flag for U.S.A. Weather past 2 weeks in Winston-Salem, North Carolina, U.S.A.

Now
60 °F

Passing clouds.


Feels Like: 60 °F
Forecast: 44 / 60 °F
Wind: 18 mph from Northwest

Location: Smith Reynolds Airport

Current Time: Oct 22, 2014 at 5:56:55 PM

Latest Report: Oct 22, 2014 at 4:54 PM


Visibility: 10 mi

Pressure: 30.05 "Hg

Humidity: 42%

Dew point: 37 °F

Location of Winston-SalemLocation

Historic Weather in Winston-Salem — Graph

°F

Winston-Salem temperature yesterday

Maximum temperature yesterday: 71 °F (at 2:54 PM)
Minimum temperature yesterday: 49 °F (at 6:54 AM)
Average temperature yesterday: 60 °F

Past Weeks' High & Low Weather Summary

 TemperatureHumidityPressure
High83 °F (Oct 8, 3:54 PM)97% (Oct 11, 3:58 AM)30.27 "Hg (Oct 11, 3:58 AM)
Low41 °F (Oct 20, 5:54 AM)28% (Oct 8, 4:54 PM)29.77 "Hg (Oct 16, 4:54 AM)
Average62 °F69%29.99 "Hg
* Reported Oct 7 4:54 PM — Oct 22 4:54 PM, Winston-Salem, Weather by CustomWeather, © 2014

Note: Actual official high and low records may vary slightly from our data, if they occured in-between our weather recording intervals... More about our weather records

Advertising

Winston-Salem weather history for previous 24 hours

 ConditionsComfort  
Time TempWeatherWind HumidityBarometerVisibility
4:54 PM
Oct 22
60 °FPassing clouds.18 mph42%30.05 "Hg10 mi
3:54 PM60 °FPassing clouds.16 mph44%30.04 "Hg10 mi
2:54 PM65 °FPartly sunny.14 mph39%30.03 "Hg10 mi
1:54 PM64 °FPassing clouds.17 mph40%30.03 "Hg10 mi
12:54 PM62 °FSunny.14 mph41%30.04 "Hg10 mi
11:54 AM61 °FSunny.15 mph42%30.06 "Hg10 mi
10:54 AM58 °FSunny.14 mph46%30.05 "Hg10 mi
9:54 AM54 °FSunny.10 mph51%30.05 "Hg10 mi
8:54 AM51 °FSunny.9 mph56%30.05 "Hg10 mi
7:54 AM49 °FClear.7 mph59%30.03 "Hg10 mi
6:54 AM48 °FClear.10 mph66%30.01 "Hg10 mi
5:54 AM47 °FClear.3 mph69%29.99 "Hg10 mi
4:54 AM46 °FPassing clouds.No wind73%29.98 "Hg10 mi
3:54 AM48 °FClear.3 mph68%29.97 "Hg10 mi
2:54 AM50 °FClear.8 mph63%29.96 "Hg10 mi
1:54 AM50 °FClear.5 mph61%29.97 "Hg10 mi
12:54 AM50 °FClear.No wind63%29.98 "Hg10 mi
11:54 PM
Oct 21
52 °FClear.7 mph57%29.98 "Hg10 mi
10:54 PM53 °FClear.9 mph55%29.99 "Hg10 mi
9:54 PM54 °FClear.12 mph55%29.99 "Hg10 mi
8:54 PM58 °FClear.13 mph44%29.96 "Hg10 mi
7:54 PM60 °FClear.9 mph41%29.93 "Hg10 mi
6:54 PM62 °FPartly sunny.13 mph39%29.91 "Hg10 mi
5:54 PM65 °FSunny.10 mph39%29.88 "Hg10 mi
Weather by CustomWeather, © 2014

See weather overviewHow to use our weather pages